Location: Newark
(14.1000°N, 87.2167°W)
Time: 16:58:01
(UTC+00:00)

OTV 5 (USA 277) - Visible Passes

Search period start: 18 August 2019 00:00
Search period end: 28 August 2019 00:00
Orbit: 305 x 329 km, 54.5° (Epoch: 11 August)

Date Brightness Start Highest point End Pass type
(mag) Time Alt. Az. Time Alt. Az. Time Alt. Az.
22 Aug ? 00:42:44 10° S 00:45:08 29° ESE 00:47:31 10° ENE visible
23 Aug ? 00:57:04 10° SW 00:59:36 41° NW 01:02:08 10° NNE visible
23 Aug ? 10:37:21 10° N 10:39:23 20° NE 10:41:27 10° ESE visible
24 Aug ? 10:51:17 10° NW 10:53:54 71° WSW 10:56:32 10° SSE visible
25 Aug ? 11:06:58 10° W 11:08:20 14° WSW 11:09:48 10° SSW visible
